QPF
0.01 0.01 0.03 0.03 0.03 0.02 0.01 0.01 0.01 0.00 0.01 0.01 0.01 0.00 0.01 0.01 0.02 0.03 0.04 0.07 0.06 0.07 0.14 0.16 0.14 0.14 0.13 0.11 0.08 0.07 0.06 0.07 0.07 0.09 0.06 0.05 0.08 0.10 0.11 0.08 0.09 0.07 0.07 0.06 0.05 0.04 0.03 0.04 0.04
0.01 0.02 0.03 0.03 0.02 0.01 0.01 0.01 0.00 0.00 0.00 0.01 0.00 0.00 0.02 0.01 0.01 0.03 0.04 0.06 0.05 0.06 0.12 0.13 0.12 0.11 0.10 0.10 0.09 0.08 0.06 0.08 0.08 0.09 0.09 0.07 0.09 0.11 0.12 0.08 0.08 0.07 0.07 0.05 0.04 0.03 0.03 0.03 0.04
0.01 0.01 0.02 0.02 0.01 0.01 0.01 0.01 0.00 0.00 0.00 0.00 0.01 0.00 0.01 0.02 0.02 0.03 0.05 0.05 0.04 0.07 0.10 0.12 0.12 0.10 0.10 0.10 0.10 0.09 0.09 0.08 0.07 0.09 0.11 0.10 0.09 0.10 0.10 0.06 0.07 0.07 0.06 0.04 0.04 0.03 0.03 0.03 0.04
0.01 0.01 0.02 0.01 0.01 0.00 0.01 0.00 0.00 0.00 0.00 0.00 0.00 0.01 0.02 0.03 0.03 0.03 0.05 0.04 0.05 0.08 0.11 0.11 0.11 0.10 0.11 0.09 0.09 0.09 0.11 0.08 0.07 0.08 0.10 0.11 0.10 0.10 0.10 0.08 0.08 0.07 0.06 0.05 0.04 0.03 0.02 0.03 0.04
0.02 0.02 0.02 0.01 0.00 0.01 0.01 0.00 0.00 0.00 0.00 0.00 0.00 0.00 0.02 0.03 0.02 0.03 0.04 0.04 0.05 0.08 0.09 0.11 0.11 0.12 0.11 0.11 0.11 0.10 0.11 0.07 0.06 0.08 0.09 0.09 0.09 0.11 0.12 0.11 0.10 0.09 0.07 0.06 0.05 0.03 0.03 0.04 0.04
0.01 0.01 0.01 0.01 0.01 0.01 0.01 0.00 0.00 0.00 0.00 0.00 0.00 0.00 0.01 0.03 0.03 0.03 0.04 0.04 0.05 0.08 0.13 0.16 0.15 0.14 0.12 0.10 0.11 0.13 0.12 0.08 0.07 0.08 0.08 0.08 0.08 0.10 0.13 0.12 0.11 0.11 0.08 0.06 0.04 0.04 0.04 0.04 0.05
0.01 0.01 0.01 0.01 0.01 0.01 0.01 0.00 0.01 0.00 0.00 0.00 0.00 0.00 0.01 0.03 0.04 0.03 0.02 0.03 0.06 0.10 0.16 0.19 0.25 0.18 0.14 0.11 0.11 0.10 0.11 0.09 0.08 0.07 0.07 0.09 0.12 0.10 0.11 0.16 0.15 0.12 0.08 0.06 0.04 0.05 0.06 0.06 0.05
0.01 0.01 0.01 0.01 0.01 0.00 0.00 0.00 0.01 0.00 0.00 0.00 0.00 0.00 0.01 0.03 0.04 0.03 0.03 0.03 0.05 0.07 0.12 0.17 0.27 0.24 0.16 0.15 0.15 0.09 0.09 0.09 0.10 0.08 0.08 0.11 0.14 0.13 0.12 0.19 0.21 0.14 0.10 0.07 0.08 0.09 0.09 0.09 0.07
0.01 0.02 0.01 0.01 0.00 0.00 0.00 0.00 0.00 0.00 0.00 0.00 0.00 0.00 0.01 0.03 0.03 0.03 0.02 0.03 0.03 0.06 0.11 0.16 0.18 0.19 0.13 0.13 0.15 0.14 0.10 0.09 0.10 0.11 0.13 0.11 0.09 0.10 0.11 0.16 0.22 0.16 0.11 0.11 0.13 0.13 0.12 0.12 0.10
0.01 0.02 0.01 0.01 0.00 0.00 0.00 0.00 0.00 0.00 0.00 0.00 0.00 0.00 0.01 0.02 0.02 0.02 0.02 0.02 0.02 0.03 0.06 0.08 0.09 0.12 0.12 0.09 0.14 0.17 0.11 0.06 0.07 0.07 0.10 0.09 0.05 0.05 0.07 0.14 0.20 0.16 0.15 0.15 0.18 0.18 0.16 0.14 0.13
0.00 0.01 0.00 0.00 0.00 0.00 0.00 0.00 0.00 0.00 0.00 0.00 0.00 0.00 0.01 0.01 0.01 0.01 0.01 0.02 0.02 0.02 0.03 0.04 0.07 0.09 0.10 0.09 0.14 0.14 0.10 0.06 0.05 0.05 0.06 0.06 0.05 0.05 0.06 0.13 0.27 0.22 0.19 0.17 0.19 0.18 0.12 0.10 0.13
0.00 0.00 0.00 0.00 0.00 0.00 0.00 0.00 0.00 0.00 0.00 0.00 0.00 0.00 0.01 0.00 0.01 0.01 0.02 0.02 0.02 0.02 0.02 0.03 0.04 0.06 0.07 0.07 0.09 0.08 0.05 0.06 0.04 0.04 0.05 0.05 0.05 0.05 0.07 0.09 0.13 0.17 0.19 0.17 0.14 0.10 0.07 0.06 0.08
0.00 0.00 0.00 0.00 0.00 0.00 0.00 0.00 0.00 0.01 0.01 0.00 0.00 0.00 0.00 0.01 0.01 0.01 0.02 0.02 0.02 0.02 0.02 0.02 0.02 0.04 0.04 0.05 0.06 0.05 0.03 0.04 0.04 0.04 0.05 0.06 0.06 0.07 0.07 0.05 0.03 0.04 0.10 0.12 0.10 0.06 0.06 0.06 0.06
0.00 0.00 0.00 0.00 0.01 0.01 0.00 0.00 0.01 0.01 0.00 0.00 0.00 0.00 0.01 0.01 0.01 0.01 0.02 0.03 0.03 0.02 0.02 0.01 0.02 0.04 0.06 0.07 0.08 0.05 0.04 0.04 0.04 0.06 0.07 0.09 0.07 0.07 0.06 0.04 0.02 0.01 0.02 0.04 0.07 0.07 0.06 0.07 0.07
0.00 0.00 0.00 0.00 0.00 0.01 0.00 0.00 0.01 0.01 0.00 0.00 0.01 0.00 0.01 0.02 0.02 0.01 0.02 0.02 0.02 0.01 0.01 0.01 0.02 0.03 0.06 0.07 0.07 0.05 0.03 0.03 0.04 0.07 0.10 0.10 0.07 0.05 0.04 0.03 0.01 0.01 0.01 0.02 0.03 0.05 0.07 0.08 0.08
0.00 0.00 0.01 0.00 0.00 0.00 0.00 0.00 0.01 0.01 0.00 0.00 0.00 0.00 0.01 0.02 0.04 0.02 0.02 0.02 0.01 0.02 0.01 0.01 0.01 0.03 0.05 0.08 0.06 0.03 0.04 0.04 0.05 0.08 0.10 0.09 0.06 0.03 0.02 0.02 0.01 0.02 0.02 0.02 0.02 0.04 0.07 0.09 0.07
0.00 0.00 0.01 0.01 0.00 0.00 0.00 0.01 0.01 0.01 0.00 0.00 0.00 0.00 0.02 0.02 0.02 0.02 0.02 0.02 0.01 0.01 0.02 0.01 0.01 0.02 0.03 0.06 0.06 0.04 0.04 0.05 0.07 0.08 0.08 0.06 0.05 0.03 0.02 0.01 0.01 0.01 0.02 0.03 0.04 0.05 0.07 0.08 0.06
0.00 0.00 0.01 0.01 0.01 0.00 0.00 0.01 0.01 0.00 0.00 0.00 0.00 0.00 0.00 0.01 0.00 0.01 0.01 0.01 0.01 0.01 0.02 0.01 0.01 0.00 0.01 0.03 0.04 0.04 0.05 0.07 0.10 0.12 0.10 0.06 0.05 0.04 0.02 0.01 0.02 0.01 0.01 0.03 0.04 0.05 0.06 0.08 0.08
0.00 0.00 0.00 0.00 0.00 0.00 0.00 0.00 0.00 0.00 0.00 0.00 0.00 0.00 0.00 0.00 0.00 0.00 0.00 0.01 0.01 0.01 0.01 0.02 0.01 0.00 0.01 0.03 0.04 0.04 0.05 0.07 0.08 0.12 0.15 0.11 0.05 0.04 0.03 0.01 0.01 0.01 0.01 0.03 0.06 0.06 0.05 0.07 0.10
0.00 0.00 0.00 0.00 0.00 0.00 0.00 0.00 0.00 0.00 0.00 0.00 0.00 0.00 0.00 0.01 0.01 0.01 0.01 0.01 0.01 0.01 0.01 0.01 0.02 0.01 0.02 0.04 0.04 0.04 0.05 0.06 0.05 0.07 0.13 0.13 0.06 0.04 0.03 0.02 0.01 0.01 0.02 0.03 0.04 0.08 0.08 0.09 0.09
0.00 0.00 0.00 0.00 0.00 0.00 0.01 0.01 0.00 0.00 0.00 0.00 0.01 0.01 0.01 0.01 0.01 0.01 0.01 0.01 0.01 0.01 0.01 0.01 0.01 0.01 0.02 0.07 0.04 0.03 0.05 0.05 0.05 0.06 0.10 0.11 0.06 0.04 0.04 0.04 0.03 0.02 0.03 0.04 0.03 0.06 0.11 0.12 0.12
0.00 0.00 0.00 0.00 0.01 0.01 0.01 0.01 0.01 0.01 0.00 0.00 0.01 0.01 0.01 0.02 0.01 0.02 0.03 0.02 0.03 0.03 0.02 0.02 0.02 0.01 0.02 0.05 0.04 0.04 0.03 0.04 0.05 0.06 0.08 0.08 0.06 0.05 0.05 0.05 0.05 0.05 0.06 0.05 0.04 0.04 0.05 0.07 0.12
0.00 0.00 0.00 0.00 0.00 0.00 0.01 0.01 0.01 0.01 0.01 0.01 0.01 0.01 0.01 0.02 0.01 0.04 0.09 0.09 0.08 0.09 0.06 0.02 0.01 0.01 0.01 0.02 0.05 0.06 0.06 0.06 0.07 0.07 0.07 0.06 0.06 0.06 0.05 0.05 0.05 0.07 0.07 0.06 0.04 0.03 0.03 0.04 0.05
0.00 0.00 0.00 0.00 0.00 0.00 0.00 0.00 0.01 0.00 0.01 0.02 0.01 0.02 0.02 0.01 0.01 0.03 0.07 0.10 0.10 0.07 0.05 0.02 0.01 0.01 0.01 0.02 0.03 0.05 0.06 0.06 0.09 0.12 0.10 0.07 0.07 0.07 0.05 0.04 0.04 0.05 0.05 0.05 0.03 0.04 0.05 0.04 0.03
0.00 0.00 0.00 0.00 0.00 0.00 0.00 0.00 0.00 0.00 0.01 0.01 0.01 0.02 0.02 0.01 0.01 0.02 0.03 0.04 0.04 0.03 0.04 0.04 0.02 0.02 0.02 0.02 0.02 0.02 0.03 0.05 0.08 0.12 0.13 0.10 0.09 0.08 0.07 0.04 0.03 0.03 0.03 0.03 0.03 0.03 0.04 0.06 0.05
0.00 0.00 0.00 0.00 0.00 0.00 0.00 0.00 0.00 0.00 0.00 0.01 0.02 0.02 0.01 0.01 0.01 0.01 0.02 0.04 0.03 0.03 0.02 0.03 0.03 0.03 0.02 0.02 0.02 0.02 0.01 0.01 0.04 0.11 0.15 0.15 0.14 0.12 0.10 0.08 0.05 0.04 0.03 0.02 0.03 0.02 0.03 0.05 0.06
0.00 0.00 0.00 0.00 0.00 0.00 0.00 0.00 0.00 0.00 0.01 0.01 0.02 0.01 0.01 0.01 0.01 0.02 0.02 0.03 0.03 0.03 0.03 0.04 0.03 0.03 0.02 0.02 0.02 0.01 0.01 0.01 0.01 0.03 0.04 0.03 0.06 0.10 0.13 0.12 0.09 0.06 0.04 0.04 0.04 0.04 0.04 0.06 0.06
0.00 0.00 0.00 0.00 0.00 0.00 0.00 0.00 0.00 0.00 0.00 0.00 0.01 0.01 0.01 0.01 0.01 0.01 0.02 0.02 0.04 0.05 0.07 0.05 0.03 0.02 0.02 0.03 0.03 0.02 0.01 0.01 0.02 0.02 0.01 0.01 0.01 0.02 0.04 0.10 0.13 0.11 0.08 0.07 0.07 0.05 0.05 0.06 0.06
0.00 0.00 0.00 0.00 0.00 0.00 0.00 0.00 0.00 0.00 0.00 0.00 0.00 0.00 0.01 0.00 0.00 0.00 0.00 0.02 0.05 0.07 0.09 0.07 0.05 0.04 0.04 0.04 0.03 0.03 0.03 0.04 0.04 0.04 0.03 0.03 0.03 0.03 0.03 0.05 0.05 0.08 0.11 0.11 0.09 0.07 0.06 0.05 0.05
0.00 0.00 0.00 0.00 0.00 0.00 0.00 0.00 0.00 0.00 0.00 0.00 0.00 0.00 0.00 0.00 0.00 0.00 0.01 0.02 0.03 0.03 0.04 0.04 0.05 0.05 0.05 0.04 0.04 0.04 0.05 0.05 0.05 0.05 0.05 0.05 0.04 0.03 0.04 0.04 0.03 0.03 0.06 0.10 0.13 0.12 0.10 0.06 0.05
MSLP
1005.28 1006.40 1007.69 1008.99 1010.14 1011.00 1011.49 1011.61 1011.44 1011.10 1010.76 1010.53 1010.49 1010.62 1010.85 1011.08 1011.17 1011.02 1010.62 1010.00 1009.26 1008.52 1007.92 1007.56 1007.48 1007.66 1008.02 1008.48 1008.95 1009.38 1009.74 1010.07 1010.39 1010.77 1011.23 1011.78 1012.39 1013.01 1013.58 1014.07 1014.45 1014.73 1014.95 1015.14 1015.34 1015.58 1015.84 1016.13 1016.40
1005.76 1007.04 1008.44 1009.77 1010.87 1011.60 1011.93 1011.86 1011.50 1011.01 1010.56 1010.27 1010.20 1010.34 1010.58 1010.81 1010.86 1010.65 1010.15 1009.41 1008.55 1007.71 1007.06 1006.70 1006.68 1006.98 1007.51 1008.17 1008.85 1009.47 1009.99 1010.43 1010.81 1011.21 1011.65 1012.16 1012.72 1013.30 1013.85 1014.33 1014.72 1015.02 1015.25 1015.46 1015.67 1015.90 1016.16 1016.43 1016.68
1006.38 1007.78 1009.23 1010.53 1011.54 1012.13 1012.29 1012.05 1011.54 1010.94 1010.43 1010.11 1010.04 1010.18 1010.40 1010.57 1010.52 1010.16 1009.48 1008.54 1007.50 1006.52 1005.79 1005.42 1005.49 1005.94 1006.70 1007.62 1008.56 1009.43 1010.15 1010.73 1011.20 1011.62 1012.04 1012.50 1013.00 1013.52 1014.03 1014.50 1014.90 1015.22 1015.49 1015.73 1015.96 1016.20 1016.45 1016.71 1016.95
1007.06 1008.53 1009.96 1011.20 1012.09 1012.54 1012.55 1012.18 1011.58 1010.94 1010.41 1010.11 1010.05 1010.18 1010.36 1010.42 1010.22 1009.65 1008.73 1007.55 1006.28 1005.14 1004.31 1003.93 1004.09 1004.72 1005.71 1006.91 1008.14 1009.27 1010.23 1010.97 1011.54 1011.99 1012.39 1012.79 1013.23 1013.70 1014.17 1014.63 1015.04 1015.40 1015.71 1015.98 1016.24 1016.49 1016.75 1017.00 1017.23
1007.70 1009.17 1010.55 1011.69 1012.45 1012.78 1012.68 1012.25 1011.63 1011.00 1010.52 1010.27 1010.25 1010.37 1010.49 1010.43 1010.04 1009.24 1008.07 1006.64 1005.15 1003.84 1002.92 1002.55 1002.78 1003.57 1004.79 1006.24 1007.73 1009.12 1010.28 1011.18 1011.84 1012.32 1012.71 1013.08 1013.46 1013.87 1014.32 1014.76 1015.19 1015.58 1015.94 1016.25 1016.54 1016.81 1017.07 1017.30 1017.52
1008.21 1009.63 1010.92 1011.94 1012.60 1012.83 1012.68 1012.25 1011.68 1011.13 1010.74 1010.58 1010.61 1010.73 1010.80 1010.62 1010.06 1009.07 1007.68 1006.05 1004.40 1002.97 1001.99 1001.61 1001.92 1002.83 1004.21 1005.85 1007.54 1009.10 1010.42 1011.43 1012.16 1012.68 1013.06 1013.39 1013.73 1014.11 1014.53 1014.97 1015.41 1015.83 1016.21 1016.56 1016.87 1017.15 1017.41 1017.63 1017.82
1008.53 1009.85 1011.03 1011.94 1012.51 1012.70 1012.55 1012.17 1011.70 1011.29 1011.03 1010.98 1011.09 1011.23 1011.27 1011.01 1010.35 1009.23 1007.72 1005.99 1004.26 1002.79 1001.80 1001.45 1001.80 1002.78 1004.24 1005.96 1007.74 1009.38 1010.76 1011.83 1012.58 1013.11 1013.48 1013.79 1014.09 1014.44 1014.84 1015.27 1015.71 1016.13 1016.53 1016.90 1017.22 1017.50 1017.75 1017.95 1018.12
1008.67 1009.87 1010.93 1011.74 1012.24 1012.42 1012.32 1012.04 1011.71 1011.45 1011.34 1011.41 1011.60 1011.79 1011.83 1011.56 1010.87 1009.74 1008.23 1006.53 1004.85 1003.44 1002.51 1002.20 1002.58 1003.57 1005.01 1006.70 1008.44 1010.04 1011.38 1012.41 1013.14 1013.64 1013.99 1014.28 1014.56 1014.88 1015.25 1015.66 1016.08 1016.49 1016.87 1017.23 1017.54 1017.82 1018.05 1018.24 1018.39
1008.66 1009.75 1010.69 1011.42 1011.87 1012.06 1012.04 1011.88 1011.69 1011.58 1011.62 1011.80 1012.07 1012.32 1012.40 1012.18 1011.56 1010.53 1009.17 1007.63 1006.13 1004.88 1004.07 1003.84 1004.24 1005.17 1006.50 1008.05 1009.62 1011.07 1012.27 1013.19 1013.84 1014.28 1014.60 1014.86 1015.12 1015.41 1015.75 1016.11 1016.49 1016.86 1017.21 1017.53 1017.81 1018.07 1018.29 1018.46 1018.60
1008.61 1009.59 1010.43 1011.08 1011.51 1011.73 1011.77 1011.72 1011.66 1011.68 1011.82 1012.09 1012.42 1012.73 1012.88 1012.77 1012.30 1011.48 1010.37 1009.12 1007.90 1006.90 1006.29 1006.15 1006.54 1007.38 1008.53 1009.85 1011.17 1012.37 1013.35 1014.10 1014.62 1014.99 1015.25 1015.48 1015.72 1015.99 1016.28 1016.60 1016.91 1017.22 1017.50 1017.77 1018.01 1018.24 1018.44 1018.61 1018.75
1008.64 1009.52 1010.27 1010.85 1011.26 1011.48 1011.58 1011.61 1011.63 1011.73 1011.94 1012.25 1012.62 1012.98 1013.21 1013.23 1012.97 1012.42 1011.64 1010.75 1009.88 1009.19 1008.80 1008.78 1009.16 1009.88 1010.81 1011.85 1012.87 1013.77 1014.49 1015.03 1015.41 1015.68 1015.89 1016.10 1016.32 1016.56 1016.82 1017.07 1017.32 1017.54 1017.75 1017.95 1018.15 1018.35 1018.53 1018.70 1018.83
1008.82 1009.61 1010.28 1010.80 1011.17 1011.39 1011.51 1011.58 1011.64 1011.77 1011.99 1012.30 1012.67 1013.05 1013.35 1013.51 1013.46 1013.20 1012.77 1012.26 1011.76 1011.39 1011.23 1011.33 1011.70 1012.29 1013.00 1013.76 1014.46 1015.06 1015.52 1015.86 1016.10 1016.29 1016.46 1016.65 1016.87 1017.09 1017.31 1017.52 1017.69 1017.84 1017.98 1018.11 1018.26 1018.42 1018.59 1018.75 1018.87
1009.20 1009.92 1010.50 1010.95 1011.27 1011.47 1011.58 1011.65 1011.71 1011.82 1012.00 1012.27 1012.62 1012.99 1013.33 1013.59 1013.73 1013.74 1013.63 1013.45 1013.29 1013.20 1013.25 1013.45 1013.82 1014.29 1014.81 1015.31 1015.75 1016.09 1016.34 1016.50 1016.63 1016.76 1016.92 1017.11 1017.33 1017.55 1017.75 1017.92 1018.04 1018.12 1018.19 1018.27 1018.37 1018.50 1018.65 1018.80 1018.92
1009.78 1010.41 1010.91 1011.28 1011.54 1011.70 1011.78 1011.81 1011.84 1011.90 1012.03 1012.24 1012.52 1012.86 1013.21 1013.54 1013.81 1014.01 1014.13 1014.22 1014.31 1014.44 1014.64 1014.92 1015.28 1015.66 1016.04 1016.37 1016.61 1016.78 1016.87 1016.93 1016.99 1017.09 1017.25 1017.45 1017.69 1017.92 1018.12 1018.27 1018.36 1018.41 1018.43 1018.47 1018.53 1018.63 1018.77 1018.90 1019.00
1010.47 1011.00 1011.41 1011.71 1011.91 1012.02 1012.06 1012.06 1012.05 1012.05 1012.11 1012.25 1012.47 1012.76 1013.09 1013.44 1013.78 1014.08 1014.35 1014.59 1014.83 1015.09 1015.39 1015.72 1016.06 1016.40 1016.70 1016.92 1017.07 1017.14 1017.16 1017.17 1017.21 1017.31 1017.47 1017.70 1017.96 1018.21 1018.42 1018.57 1018.65 1018.68 1018.69 1018.70 1018.74 1018.82 1018.94 1019.05 1019.12
1011.14 1011.58 1011.91 1012.15 1012.30 1012.38 1012.39 1012.36 1012.31 1012.27 1012.27 1012.35 1012.50 1012.74 1013.04 1013.38 1013.73 1014.06 1014.38 1014.68 1014.98 1015.29 1015.61 1015.95 1016.30 1016.62 1016.89 1017.10 1017.22 1017.28 1017.30 1017.31 1017.35 1017.46 1017.64 1017.87 1018.14 1018.41 1018.63 1018.79 1018.89 1018.93 1018.94 1018.95 1018.98 1019.05 1019.14 1019.22 1019.27
1011.69 1012.05 1012.32 1012.52 1012.66 1012.73 1012.74 1012.69 1012.62 1012.54 1012.51 1012.53 1012.64 1012.83 1013.09 1013.40 1013.72 1014.04 1014.35 1014.63 1014.91 1015.20 1015.51 1015.84 1016.19 1016.52 1016.82 1017.06 1017.23 1017.33 1017.39 1017.43 1017.49 1017.60 1017.77 1017.99 1018.24 1018.50 1018.73 1018.91 1019.02 1019.09 1019.12 1019.14 1019.18 1019.24 1019.31 1019.37 1019.39
1012.03 1012.35 1012.60 1012.81 1012.97 1013.06 1013.08 1013.04 1012.96 1012.85 1012.78 1012.76 1012.83 1012.98 1013.21 1013.48 1013.78 1014.06 1014.32 1014.56 1014.78 1015.02 1015.28 1015.59 1015.94 1016.30 1016.66 1016.97 1017.22 1017.40 1017.52 1017.59 1017.66 1017.75 1017.87 1018.04 1018.25 1018.48 1018.69 1018.87 1019.01 1019.10 1019.16 1019.21 1019.26 1019.32 1019.38 1019.43 1019.43
1012.14 1012.46 1012.75 1013.03 1013.25 1013.40 1013.46 1013.42 1013.32 1013.17 1013.04 1012.97 1012.99 1013.11 1013.32 1013.58 1013.85 1014.11 1014.33 1014.51 1014.68 1014.86 1015.08 1015.36 1015.72 1016.12 1016.54 1016.94 1017.28 1017.54 1017.71 1017.81 1017.85 1017.88 1017.93 1018.01 1018.14 1018.30 1018.48 1018.65 1018.80 1018.92 1019.01 1019.09 1019.15 1019.22 1019.28 1019.32 1019.32
1012.05 1012.44 1012.85 1013.24 1013.57 1013.81 1013.90 1013.85 1013.69 1013.47 1013.25 1013.10 1013.06 1013.13 1013.32 1013.57 1013.85 1014.11 1014.32 1014.49 1014.62 1014.76 1014.95 1015.22 1015.58 1016.02 1016.50 1016.98 1017.40 1017.72 1017.93 1018.02 1018.02 1017.97 1017.91 1017.88 1017.89 1017.96 1018.08 1018.22 1018.37 1018.51 1018.63 1018.74 1018.82 1018.89 1018.95 1018.99 1019.00
1011.87 1012.39 1012.97 1013.53 1014.01 1014.33 1014.45 1014.36 1014.10 1013.74 1013.38 1013.09 1012.94 1012.95 1013.10 1013.37 1013.68 1013.98 1014.23 1014.41 1014.56 1014.69 1014.87 1015.14 1015.51 1015.97 1016.50 1017.03 1017.50 1017.86 1018.08 1018.15 1018.09 1017.95 1017.77 1017.61 1017.51 1017.48 1017.52 1017.63 1017.77 1017.92 1018.05 1018.17 1018.26 1018.34 1018.40 1018.44 1018.47
1011.68 1012.41 1013.21 1013.98 1014.61 1015.00 1015.11 1014.94 1014.52 1013.97 1013.40 1012.92 1012.61 1012.52 1012.64 1012.92 1013.28 1013.65 1013.97 1014.22 1014.41 1014.58 1014.77 1015.04 1015.41 1015.88 1016.43 1016.98 1017.48 1017.86 1018.08 1018.12 1018.00 1017.78 1017.50 1017.23 1017.02 1016.90 1016.88 1016.94 1017.06 1017.20 1017.34 1017.46 1017.55 1017.62 1017.68 1017.72 1017.77
1011.60 1012.56 1013.60 1014.58 1015.36 1015.81 1015.88 1015.58 1014.96 1014.16 1013.33 1012.61 1012.12 1011.90 1011.96 1012.24 1012.66 1013.12 1013.54 1013.89 1014.15 1014.36 1014.58 1014.85 1015.21 1015.68 1016.21 1016.77 1017.27 1017.65 1017.87 1017.89 1017.74 1017.46 1017.12 1016.77 1016.49 1016.31 1016.23 1016.26 1016.35 1016.48 1016.61 1016.71 1016.79 1016.84 1016.88 1016.92 1016.97
1011.64 1012.85 1014.12 1015.29 1016.19 1016.67 1016.67 1016.21 1015.37 1014.30 1013.20 1012.23 1011.53 1011.18 1011.17 1011.44 1011.91 1012.46 1012.99 1013.43 1013.77 1014.04 1014.28 1014.54 1014.89 1015.32 1015.82 1016.36 1016.85 1017.23 1017.45 1017.48 1017.34 1017.05 1016.69 1016.33 1016.01 1015.79 1015.69 1015.68 1015.75 1015.86 1015.96 1016.04 1016.09 1016.10 1016.11 1016.13 1016.17
1011.80 1013.21 1014.68 1016.00 1016.97 1017.45 1017.37 1016.75 1015.70 1014.38 1013.03 1011.83 1010.95 1010.47 1010.39 1010.66 1011.17 1011.79 1012.40 1012.93 1013.35 1013.66 1013.90 1014.15 1014.46 1014.84 1015.30 1015.80 1016.28 1016.66 1016.90 1016.97 1016.87 1016.62 1016.30 1015.96 1015.66 1015.44 1015.33 1015.31 1015.35 1015.43 1015.50 1015.54 1015.55 1015.52 1015.48 1015.46 1015.48
1012.01 1013.57 1015.16 1016.56 1017.56 1018.01 1017.84 1017.09 1015.87 1014.37 1012.84 1011.48 1010.46 1009.89 1009.76 1010.02 1010.56 1011.24 1011.92 1012.51 1012.96 1013.29 1013.54 1013.75 1014.01 1014.34 1014.75 1015.21 1015.66 1016.06 1016.34 1016.47 1016.43 1016.27 1016.02 1015.74 1015.48 1015.30 1015.19 1015.16 1015.19 1015.24 1015.27 1015.27 1015.22 1015.14 1015.06 1015.00 1014.98
1012.17 1013.80 1015.42 1016.83 1017.81 1018.21 1017.97 1017.12 1015.81 1014.23 1012.62 1011.19 1010.12 1009.52 1009.38 1009.64 1010.20 1010.90 1011.61 1012.23 1012.71 1013.04 1013.26 1013.44 1013.64 1013.92 1014.27 1014.69 1015.14 1015.54 1015.87 1016.06 1016.12 1016.05 1015.89 1015.69 1015.50 1015.35 1015.27 1015.24 1015.25 1015.26 1015.25 1015.21 1015.12 1015.00 1014.87 1014.76 1014.71
1012.22 1013.81 1015.38 1016.72 1017.62 1017.95 1017.66 1016.79 1015.48 1013.92 1012.34 1010.96 1009.94 1009.36 1009.25 1009.54 1010.11 1010.82 1011.53 1012.15 1012.62 1012.93 1013.13 1013.28 1013.43 1013.66 1013.97 1014.36 1014.79 1015.21 1015.57 1015.83 1015.97 1015.98 1015.92 1015.80 1015.67 1015.56 1015.49 1015.46 1015.45 1015.44 1015.40 1015.33 1015.20 1015.05 1014.89 1014.76 1014.68
1012.13 1013.59 1015.01 1016.19 1016.97 1017.22 1016.90 1016.07 1014.85 1013.41 1011.98 1010.75 1009.85 1009.38 1009.34 1009.66 1010.24 1010.94 1011.64 1012.23 1012.68 1012.97 1013.15 1013.28 1013.41 1013.61 1013.89 1014.26 1014.68 1015.10 1015.48 1015.78 1015.97 1016.06 1016.05 1015.99 1015.91 1015.83 1015.77 1015.74 1015.71 1015.68 1015.63 1015.53 1015.40 1015.24 1015.08 1014.93 1014.83
1011.92 1013.17 1014.37 1015.34 1015.95 1016.11 1015.79 1015.03 1013.96 1012.73 1011.52 1010.51 1009.80 1009.48 1009.53 1009.89 1010.47 1011.15 1011.81 1012.38 1012.80 1013.08 1013.26 1013.39 1013.53 1013.72 1014.00 1014.35 1014.76 1015.17 1015.55 1015.86 1016.08 1016.19 1016.22 1016.19 1016.13 1016.07 1016.01 1015.97 1015.94 1015.90 1015.84 1015.75 1015.63 1015.48 1015.33 1015.20 1015.10
Thickness
5813 5810 5806 5796 5778 5762 5759 5771 5781 5782 5784 5792 5796 5791 5782 5776 5771 5769 5791 5800 5800 5799 5798 5796 5796 5795 5795 5794 5793 5793 5792 5791 5790 5789 5788 5787 5785 5783 5782 5780 5779 5778 5776 5775 5773 5772 5771 5769 5768
5815 5811 5802 5789 5767 5749 5758 5778 5780 5786 5792 5797 5796 5791 5784 5781 5788 5789 5793 5799 5800 5799 5797 5795 5794 5794 5793 5792 5791 5790 5790 5789 5788 5787 5786 5785 5784 5782 5781 5779 5778 5777 5775 5773 5772 5771 5769 5768 5767
5817 5812 5796 5781 5766 5756 5765 5782 5786 5794 5800 5798 5791 5791 5785 5783 5790 5792 5797 5800 5799 5798 5796 5794 5793 5792 5791 5790 5789 5788 5787 5787 5786 5786 5785 5784 5782 5781 5779 5778 5777 5776 5774 5773 5771 5770 5769 5767 5766
5815 5804 5793 5777 5768 5776 5783 5789 5795 5794 5797 5799 5792 5784 5788 5795 5795 5797 5800 5800 5797 5796 5795 5794 5792 5791 5790 5788 5787 5786 5785 5785 5784 5784 5783 5783 5782 5780 5779 5777 5776 5775 5774 5772 5770 5769 5768 5767 5766
5814 5797 5780 5769 5774 5787 5796 5800 5800 5793 5792 5794 5791 5782 5783 5794 5800 5800 5799 5798 5796 5794 5794 5793 5791 5790 5788 5787 5786 5785 5784 5784 5783 5782 5782 5781 5780 5779 5778 5777 5775 5773 5772 5771 5769 5768 5767 5766 5765
5803 5792 5770 5764 5777 5792 5800 5805 5801 5794 5793 5795 5791 5782 5783 5795 5797 5797 5797 5796 5795 5793 5792 5791 5790 5789 5787 5786 5784 5784 5783 5783 5782 5781 5781 5780 5779 5778 5777 5775 5774 5772 5771 5770 5768 5767 5766 5766 5765
5799 5786 5774 5775 5778 5788 5800 5808 5800 5795 5793 5796 5797 5782 5784 5792 5796 5797 5795 5793 5792 5792 5791 5790 5788 5787 5786 5785 5783 5783 5782 5782 5781 5781 5780 5780 5778 5777 5775 5774 5773 5772 5770 5769 5768 5766 5766 5765 5764
5809 5790 5781 5779 5781 5788 5805 5808 5807 5802 5798 5807 5803 5786 5783 5793 5797 5796 5793 5790 5789 5788 5788 5787 5786 5785 5784 5783 5782 5781 5781 5780 5780 5779 5779 5778 5777 5776 5774 5773 5772 5770 5769 5768 5766 5765 5765 5764 5763
5815 5786 5777 5786 5789 5796 5809 5806 5809 5814 5807 5806 5806 5801 5800 5801 5797 5791 5787 5785 5784 5785 5784 5784 5784 5783 5782 5781 5781 5780 5779 5779 5778 5777 5777 5776 5775 5774 5773 5772 5771 5770 5769 5767 5765 5764 5763 5763 5762
5806 5784 5794 5808 5810 5809 5812 5810 5810 5806 5800 5799 5801 5803 5804 5799 5794 5788 5784 5781 5781 5781 5782 5783 5782 5781 5781 5780 5779 5779 5778 5777 5777 5776 5776 5774 5773 5773 5772 5771 5771 5770 5768 5766 5764 5763 5762 5761 5760
5809 5799 5811 5819 5822 5821 5815 5813 5816 5805 5796 5801 5800 5799 5800 5796 5792 5788 5785 5784 5783 5782 5782 5782 5781 5781 5780 5779 5778 5777 5776 5776 5775 5775 5774 5773 5772 5771 5770 5769 5768 5767 5766 5765 5763 5761 5760 5759 5758
5812 5815 5822 5824 5828 5823 5817 5815 5812 5810 5810 5818 5814 5809 5802 5795 5792 5789 5786 5785 5783 5782 5781 5782 5781 5780 5780 5779 5778 5776 5775 5774 5774 5773 5772 5771 5770 5769 5768 5767 5766 5766 5764 5763 5762 5761 5760 5758 5757
5815 5820 5827 5828 5826 5824 5822 5815 5813 5813 5821 5821 5815 5809 5802 5798 5795 5793 5790 5787 5785 5782 5782 5782 5782 5781 5780 5779 5777 5776 5775 5774 5773 5772 5771 5770 5769 5768 5767 5766 5765 5764 5764 5762 5761 5760 5759 5757 5756
5822 5824 5825 5826 5825 5825 5818 5815 5814 5812 5819 5816 5811 5806 5804 5800 5797 5793 5790 5787 5785 5784 5783 5783 5783 5782 5781 5779 5777 5776 5775 5774 5773 5772 5770 5770 5769 5768 5766 5765 5764 5763 5763 5762 5760 5759 5758 5757 5756
5828 5817 5816 5821 5822 5822 5817 5804 5808 5815 5817 5811 5809 5807 5804 5802 5799 5795 5793 5790 5788 5786 5785 5784 5783 5783 5781 5780 5778 5777 5776 5774 5773 5772 5770 5769 5768 5767 5766 5765 5763 5763 5762 5761 5759 5758 5757 5756 5755
5817 5803 5794 5812 5819 5820 5809 5790 5809 5817 5813 5807 5807 5806 5803 5801 5800 5799 5797 5793 5791 5788 5785 5784 5785 5783 5781 5780 5779 5778 5776 5774 5773 5771 5770 5769 5768 5767 5766 5764 5763 5762 5761 5760 5759 5757 5756 5755 5754
5792 5783 5787 5801 5816 5814 5804 5793 5809 5816 5812 5807 5806 5805 5803 5800 5800 5800 5799 5795 5792 5789 5786 5784 5784 5783 5781 5780 5779 5778 5776 5775 5773 5771 5770 5770 5768 5767 5765 5764 5763 5762 5760 5759 5758 5757 5755 5754 5753
5780 5783 5786 5791 5807 5807 5797 5796 5807 5813 5811 5807 5805 5804 5802 5800 5800 5801 5800 5797 5793 5790 5788 5785 5784 5782 5781 5779 5777 5776 5775 5774 5773 5772 5771 5770 5768 5767 5765 5763 5762 5761 5760 5758 5757 5756 5755 5753 5753
5794 5788 5784 5793 5808 5800 5793 5795 5802 5809 5808 5805 5803 5802 5801 5801 5803 5802 5800 5797 5793 5789 5787 5785 5783 5782 5780 5777 5775 5773 5772 5772 5773 5772 5772 5771 5769 5767 5765 5763 5762 5761 5759 5758 5757 5755 5753 5751 5752
5793 5785 5783 5793 5805 5799 5790 5793 5802 5807 5807 5807 5806 5804 5803 5801 5800 5800 5799 5796 5793 5789 5787 5785 5783 5782 5780 5778 5776 5775 5774 5773 5773 5773 5772 5771 5769 5767 5766 5764 5762 5761 5759 5757 5755 5754 5751 5750 5750
5788 5784 5784 5785 5792 5794 5789 5783 5792 5803 5807 5807 5808 5808 5807 5804 5800 5799 5798 5796 5793 5790 5788 5787 5784 5783 5781 5779 5777 5775 5773 5772 5771 5771 5771 5771 5770 5768 5766 5764 5763 5761 5759 5757 5755 5754 5751 5748 5748
5779 5796 5794 5788 5776 5766 5777 5756 5781 5790 5795 5801 5804 5806 5806 5807 5805 5801 5799 5796 5794 5792 5791 5788 5785 5783 5781 5779 5776 5773 5770 5767 5768 5770 5770 5770 5769 5768 5766 5764 5763 5761 5760 5758 5756 5755 5752 5749 5746
5791 5801 5793 5786 5772 5761 5765 5754 5766 5783 5785 5795 5802 5806 5808 5808 5807 5805 5802 5800 5797 5794 5791 5789 5786 5783 5782 5780 5778 5774 5772 5770 5770 5769 5769 5768 5768 5767 5766 5764 5763 5761 5760 5758 5756 5754 5753 5750 5748
5799 5788 5777 5764 5754 5742 5755 5748 5753 5770 5783 5793 5801 5805 5807 5809 5809 5807 5804 5800 5797 5795 5792 5789 5785 5783 5782 5780 5778 5775 5772 5770 5768 5767 5766 5766 5766 5766 5765 5764 5762 5761 5759 5758 5756 5755 5753 5751 5749
5786 5761 5738 5734 5723 5730 5751 5747 5754 5783 5793 5796 5799 5803 5807 5808 5807 5805 5802 5799 5796 5794 5792 5790 5786 5782 5781 5779 5777 5775 5772 5770 5768 5767 5765 5764 5764 5763 5764 5763 5762 5760 5759 5757 5756 5754 5752 5751 5749
5774 5762 5734 5723 5719 5727 5743 5741 5764 5789 5796 5800 5802 5803 5804 5803 5803 5803 5803 5800 5797 5795 5792 5788 5786 5783 5781 5779 5777 5775 5773 5771 5769 5767 5765 5764 5764 5764 5763 5762 5761 5760 5758 5757 5755 5753 5752 5751 5749
5768 5757 5758 5733 5726 5720 5730 5745 5768 5786 5789 5793 5795 5796 5797 5798 5799 5799 5799 5798 5795 5793 5790 5788 5786 5784 5781 5779 5776 5774 5772 5770 5769 5767 5765 5764 5763 5763 5762 5761 5759 5758 5757 5756 5754 5752 5751 5749 5748
5776 5759 5740 5727 5713 5710 5725 5735 5746 5768 5774 5782 5785 5788 5791 5794 5794 5795 5795 5794 5793 5791 5789 5787 5786 5783 5781 5778 5776 5775 5772 5769 5768 5766 5764 5763 5762 5761 5760 5758 5757 5756 5755 5754 5752 5750 5749 5747 5747
5761 5752 5736 5722 5722 5710 5709 5730 5767 5768 5774 5777 5781 5786 5787 5789 5790 5790 5790 5790 5790 5788 5786 5783 5782 5781 5778 5776 5774 5772 5770 5768 5766 5764 5763 5761 5760 5759 5757 5755 5754 5753 5751 5750 5748 5747 5746 5744 5744
5765 5753 5738 5727 5718 5713 5713 5731 5774 5773 5776 5777 5778 5782 5784 5785 5786 5786 5786 5785 5784 5782 5782 5780 5779 5777 5776 5774 5771 5769 5768 5766 5763 5761 5760 5759 5757 5756 5754 5753 5752 5751 5749 5747 5745 5743 5743 5741 5740